Estación de Peumo Norte

Ultimos registro cada 15 minutos 32
Estación Fecha / Hora Temperatura Humedad Lluvia Velocidad Dirección Radiación Presion
32 Peumo Norte 10-05-2026 07:45 5,4 95,2 0 0 145 5,6 1000,2
31 Peumo Norte 10-05-2026 07:30 5 95 0 0 145 1,9 1000,3
30 Peumo Norte 10-05-2026 07:15 4,7 95,6 0 0 145 0,6 1000,2
29 Peumo Norte 10-05-2026 07:00 4,5 95 0 0 145 0,6 1000,2
28 Peumo Norte 10-05-2026 06:45 5,1 94,8 0 0 145 0,6 1000,3
27 Peumo Norte 10-05-2026 06:30 4,6 94,9 0 0 145 0,6 1000,1
26 Peumo Norte 10-05-2026 06:15 3,6 94,9 0 0 145 0,6 1000
25 Peumo Norte 10-05-2026 06:00 4,3 94,7 0 0 145 0,6 999,9
24 Peumo Norte 10-05-2026 05:45 4,6 94,3 0 0 145 0,6 999,9
23 Peumo Norte 10-05-2026 05:30 5 94,3 0 0 145 0,6 999,9
22 Peumo Norte 10-05-2026 05:15 3,1 93,8 0 0 145 0,6 999,9
21 Peumo Norte 10-05-2026 05:00 4,3 93,8 0 0 145 0,6 999,9
20 Peumo Norte 10-05-2026 04:45 4,7 93,7 0 0 145 0,6 999,8
19 Peumo Norte 10-05-2026 04:30 5,2 93,7 0 0 145 0,6 999,8
18 Peumo Norte 10-05-2026 04:15 4,1 93,3 0 0 145 0,6 999,8
17 Peumo Norte 10-05-2026 04:00 4,5 93,1 0 0 145 0,6 999,9
16 Peumo Norte 10-05-2026 03:45 4,8 93 0 0 145 0,6 1000
15 Peumo Norte 10-05-2026 03:30 4 92,8 0 0 145 0,6 1000,1
14 Peumo Norte 10-05-2026 03:15 4,1 92 0 0 145 0,6 1000,2
13 Peumo Norte 10-05-2026 03:00 5,8 92,7 0 0 145 0,6 1000,2
12 Peumo Norte 10-05-2026 02:45 5,6 92,2 0 0 145 0,6 1000,4
11 Peumo Norte 10-05-2026 02:30 6,2 91,6 0 0 145 0,6 1000,5
10 Peumo Norte 10-05-2026 02:15 4,6 91,2 0 0 145 0,6 1000,7
9 Peumo Norte 10-05-2026 02:00 5,4 89,8 0 0 145 0,6 1000,9
8 Peumo Norte 10-05-2026 01:45 4,6 89,5 0 0 145 0,6 1000,8
7 Peumo Norte 10-05-2026 01:30 5 88,9 0 0 145 0,6 1000,7
6 Peumo Norte 10-05-2026 01:15 5,4 87,4 0 0 145 0,6 1000,7
5 Peumo Norte 10-05-2026 01:00 7 87,3 0 0 145 0,6 1000,6
4 Peumo Norte 10-05-2026 00:45 6,4 85,3 0 0 145 0,6 1000,6
3 Peumo Norte 10-05-2026 00:30 8 84,7 0 0 145 0,6 1000,7
2 Peumo Norte 10-05-2026 00:15 9,4 85 0 0 146 0,6 1000,6
1 Peumo Norte 10-05-2026 00:00 9,7 86,6 0 0 156 0,6 1000,7